Simultaneous Nadir Overpasses (SNOs) Predictions

Prediction of SNOs between LANDSAT-8 and METOP-A Satellite Orbit:

Table of predicted SNOs for the next 14.0 days since TLE Epoch: 9/11/2015
Index Date (LANDSAT-8) Time (LANDSAT-8) Lat,Lon (LANDSAT-8) SZA (LANDSAT-8 ) Date (METOP-A) Time (METOP-A) Lat,Lon (METOP-A) SZA (METOP-A ) Distance(km) Time Diff (sec)
1 09/12/2015 21:07:02 81.22, -95.12 79.49 09/12/2015 21:06:08 81.23, -95.16 79.47 0.58 54
2 09/12/2015 21:56:28 -81.24, 72.83 100.45 09/12/2015 21:56:47 -81.25, 72.88 100.44 0.91 19
3 09/15/2015 16:41:18 81.23, -28.57 80.61 09/15/2015 16:40:28 81.23, -28.45 80.60 1.99 50
4 09/15/2015 17:30:44 -81.25, 139.41 99.33 09/15/2015 17:31:07 -81.25, 139.59 99.30 3.01 23
5 09/18/2015 12:15:34 81.23, 37.86 81.71 09/18/2015 12:14:49 81.23, 37.83 81.69 0.38 45
6
